Date,TemperatureHighF,TemperatureAvgF,TemperatureLowF,DewpointHighF,DewpointAvgF,DewpointLowF,HumidityHigh,HumidityAvg,HumidityLow,PressureMaxIn,PressureMinIn,WindSpeedMaxMPH,WindSpeedAvgMPH,GustSpeedMaxMPH,PrecipitationSumIn
2013-7-1,94.7,74.1,56.1,68.0,60.2,54.7,97,66,36,0.00,0.00,6,2,12,0.00
2013-7-2,90.5,70.8,58.6,65.5,59.1,55.8,91,69,42,0.00,0.00,6,3,16,0.00
2013-7-3,87.8,70.1,57.8,64.7,59.0,56.0,96,71,42,0.00,0.00,6,2,12,0.00
2013-7-4,98.5,78.5,62.5,66.1,56.6,41.0,84,53,17,0.00,0.00,8,3,20,0.00
2013-7-5,82.3,67.5,53.9,58.8,52.2,42.6,85,60,32,0.00,0.00,6,3,12,0.00
2013-7-6,77.3,62.6,52.4,58.0,53.7,50.9,96,75,51,0.00,0.00,5,2,12,0.00
2013-7-7,80.2,61.7,52.5,59.5,53.4,50.5,94,77,44,0.00,0.00,5,3,12,0.00
2013-7-8,82.4,62.4,52.1,59.4,53.7,50.5,95,76,45,0.00,0.00,5,2,10,0.00
2013-7-9,92.6,67.5,51.8,58.5,53.3,45.7,100,69,23,0.00,0.00,5,2,10,0.00
2013-7-10,80.8,61.5,50.0,57.7,52.1,49.4,98,75,39,0.00,0.00,7,3,11,0.00
2013-7-11,74.7,58.6,50.0,56.9,51.6,48.1,97,79,52,0.00,0.00,6,3,13,0.00
2013-7-12,78.0,60.7,51.9,58.4,53.0,50.3,96,78,51,0.00,0.00,6,2,12,0.00
2013-7-13,84.2,63.3,47.4,58.6,52.2,46.3,97,72,33,0.00,0.00,6,2,12,0.00
2013-7-14,77.9,60.3,51.2,57.3,52.7,50.1,99,79,45,0.00,0.00,6,3,14,0.00
2013-7-15,69.3,57.1,50.1,54.5,51.3,49.2,98,82,58,0.00,0.00,6,3,13,0.00
2013-7-16,68.7,58.7,53.3,56.4,53.3,51.3,96,83,65,0.00,0.00,5,3,13,0.00
2013-7-17,80.0,61.9,49.5,60.0,54.5,48.2,98,79,47,0.00,0.00,5,2,13,0.00
2013-7-18,80.4,62.7,53.5,60.6,55.4,52.1,100,80,45,0.00,0.00,6,3,12,0.00
2013-7-19,84.2,63.2,51.4,61.9,54.6,51.2,100,78,44,0.00,0.00,6,2,12,0.00
2013-7-20,85.4,62.3,49.8,61.5,53.7,49.6,100,77,42,0.00,0.00,6,2,12,0.00
2013-7-21,80.5,62.6,52.6,57.0,52.6,50.3,94,73,42,0.00,0.00,6,3,14,0.00
2013-7-22,83.1,64.3,50.2,58.4,53.8,48.5,95,72,39,0.00,0.00,6,2,17,0.00
2013-7-23,79.0,67.4,58.3,59.0,56.3,53.0,88,69,46,0.00,0.00,4,2,9,0.00
2013-7-24,83.2,65.9,53.5,60.6,55.7,52.8,99,73,43,0.00,0.00,6,3,12,0.00
2013-7-25,79.0,62.5,52.9,57.9,53.9,51.9,98,76,47,0.00,0.00,6,3,12,0.00
2013-7-26,79.1,61.7,52.6,59.8,53.8,50.8,96,78,50,0.00,0.00,6,3,15,0.00
2013-7-27,77.2,60.5,53.0,58.5,53.4,50.8,96,80,52,0.00,0.00,5,3,12,0.00
2013-7-28,72.5,58.5,52.6,57.0,52.6,50.7,94,82,56,0.00,0.00,5,2,13,0.00
2013-7-29,69.4,58.2,53.6,55.5,52.6,51.0,94,82,61,0.00,0.00,7,3,16,0.00
2013-7-30,74.1,60.5,53.0,58.2,53.7,51.2,96,80,56,0.00,0.00,5,2,12,0.00
2013-7-31,78.1,63.4,52.6,58.3,54.2,50.6,99,75,48,0.00,0.00,6,3,13,0.00